User: anonymous   Login
Location: Spruce Knob
(38.6995°N, 79.5330°W)
Time: 03:33:00
(UTC-05:00)
Language:

Hubble Space Telescope - Orbit

View from above orbital plane
View from above orbital plane
View from above satellite
View from above satellite

Ground track
Ground track

The orbit data is extracted from the following two-line orbital elements,

1 20580U 90037B   24056.94362791  .00007131  00000-0  35069-3 0  9990
2 20580  28.4699  16.1799 0002611 250.8087 109.2223 15.16088924659977
Epoch (UTC): 25 February 2024 22:38:49
Eccentricity: 0.0002611
inclination: 28.4699°
perigee height: 516 km
apogee height: 519 km
right ascension of ascending node: 16.1799°
argument of perigee: 250.8087°
revolutions per day: 15.16088924
mean anomaly at epoch: 109.2223°
orbit number at epoch: 65997

The dashed part of the orbit path shows where the satellite is in the earth's shadow,  

DLR